BAW9160 EGLL-EDDF

Flight info

Callsign BAW9160
Flight time N/A
Altitude 35000
Route DET L6 DVR UL9 KONAN UL607 SPI T180 NIVNU T847 IMCOM IMCOM1A
Aircraft A388/J-SADE2E3FGHIJ3J4J5M1RWXY/LB1D1

Departure

Time N/A
Airport London Heathrow Airport (EGLL)

Arrival

Time 2026-05-04 19:53
Airport Frankfurt Main Airport (EDDF)
Time Latitude Longitude Altitude Speed Heading
2026-05-04 19:08 51.07475 2.76194 34992 ft 491 kts 109°
2026-05-04 19:09 51.05581 2.86624 34978 ft 491 kts 108°
2026-05-04 19:09 51.03685 2.97054 34980 ft 492 kts 109°
2026-05-04 19:10 51.01770 3.07495 34981 ft 492 kts 109°
2026-05-04 19:10 50.99856 3.17860 34982 ft 493 kts 109°
2026-05-04 19:11 50.97918 3.28297 34974 ft 493 kts 109°
2026-05-04 19:11 50.95971 3.38731 34980 ft 493 kts 109°
2026-05-04 19:12 50.93039 3.54327 34973 ft 492 kts 110°
2026-05-04 19:13 50.91072 3.64715 34952 ft 492 kts 110°
2026-05-04 19:13 50.89084 3.75065 34951 ft 491 kts 110°
2026-05-04 19:14 50.87079 3.85410 34959 ft 491 kts 110°
2026-05-04 19:14 50.85069 3.95740 34957 ft 491 kts 110°
2026-05-04 19:15 50.83049 4.06074 34961 ft 491 kts 110°
2026-05-04 19:15 50.81019 4.16400 34964 ft 491 kts 111°
2026-05-04 19:16 50.78984 4.26701 34961 ft 491 kts 111°
2026-05-04 19:16 50.76938 4.36999 34962 ft 491 kts 111°
2026-05-04 19:17 50.74895 4.47228 34963 ft 491 kts 111°
2026-05-04 19:17 50.72829 4.57516 34965 ft 491 kts 111°
2026-05-04 19:18 50.70793 4.67808 34944 ft 492 kts 110°
2026-05-04 19:18 50.68807 4.78131 34954 ft 492 kts 111°
2026-05-04 19:19 50.66799 4.88459 34957 ft 493 kts 111°
2026-05-04 19:19 50.64745 4.98755 34962 ft 492 kts 112°
2026-05-04 19:20 50.62619 5.09018 34968 ft 493 kts 112°
2026-05-04 19:20 50.60494 5.19270 34954 ft 493 kts 112°
2026-05-04 19:21 50.58362 5.29531 34965 ft 494 kts 112°
2026-05-04 19:21 50.56218 5.39806 34969 ft 494 kts 113°
2026-05-04 19:22 50.54066 5.50065 34971 ft 494 kts 113°
2026-05-04 19:22 50.51904 5.60323 34960 ft 494 kts 113°
2026-05-04 19:23 50.49853 5.70639 34966 ft 496 kts 111°
2026-05-04 19:23 50.47961 5.81048 34970 ft 495 kts 111°
2026-05-04 19:24 50.46031 5.91432 34969 ft 495 kts 111°
2026-05-04 19:24 50.44075 6.01786 34922 ft 495 kts 111°
2026-05-04 19:24 50.43098 6.06937 34529 ft 491 kts 111°
2026-05-04 19:25 50.42121 6.12071 33639 ft 493 kts 112°
2026-05-04 19:25 50.41144 6.17173 32472 ft 496 kts 112°
2026-05-04 19:25 50.40153 6.22345 31537 ft 494 kts 112°
2026-05-04 19:25 50.39174 6.27460 30912 ft 485 kts 112°
2026-05-04 19:26 50.38225 6.32411 30539 ft 472 kts 112°
2026-05-04 19:26 50.37285 6.37296 29913 ft 465 kts 113°
2026-05-04 19:26 50.36475 6.42187 29283 ft 462 kts 107°
2026-05-04 19:26 50.36054 6.47158 28665 ft 460 kts 100°
2026-05-04 19:27 50.35783 6.52100 28098 ft 452 kts 101°
2026-05-04 19:27 50.35484 6.56972 27513 ft 446 kts 101°
2026-05-04 19:27 50.35176 6.61764 26879 ft 441 kts 101°
2026-05-04 19:27 50.34866 6.66520 26272 ft 438 kts 100°
2026-05-04 19:28 50.34559 6.71233 26019 ft 434 kts 100°
2026-05-04 19:28 50.34250 6.75951 25977 ft 437 kts 100°
2026-05-04 19:28 50.33948 6.80679 25980 ft 437 kts 101°
2026-05-04 19:28 50.33426 6.85335 25977 ft 431 kts 109°
2026-05-04 19:29 50.32539 6.89774 25537 ft 425 kts 116°
2026-05-04 19:29 50.31336 6.94011 24274 ft 430 kts 119°
2026-05-04 19:29 50.30029 6.98295 22899 ft 440 kts 118°
2026-05-04 19:29 50.28732 7.02589 21942 ft 433 kts 118°
2026-05-04 19:30 50.27467 7.06813 21061 ft 425 kts 118°
2026-05-04 19:30 50.26226 7.10969 20135 ft 419 kts 118°
2026-05-04 19:30 50.25002 7.15059 19205 ft 413 kts 118°
2026-05-04 19:30 50.23793 7.19092 18351 ft 407 kts 118°
2026-05-04 19:31 50.22600 7.23064 17362 ft 400 kts 118°
2026-05-04 19:31 50.21428 7.26962 16415 ft 394 kts 118°
2026-05-04 19:31 50.20269 7.30806 15472 ft 389 kts 118°
2026-05-04 19:31 50.19190 7.34659 14524 ft 385 kts 113°
2026-05-04 19:32 50.18283 7.38562 13600 ft 380 kts 113°
2026-05-04 19:32 50.17382 7.42384 12659 ft 373 kts 114°
2026-05-04 19:32 50.16493 7.46112 11736 ft 369 kts 114°
2026-05-04 19:32 50.15617 7.49780 11255 ft 354 kts 114°
2026-05-04 19:33 50.14821 7.53346 11048 ft 347 kts 105°
2026-05-04 19:33 50.14540 7.57101 10992 ft 350 kts 98°
2026-05-04 19:33 50.14339 7.60886 10989 ft 351 kts 98°
2026-05-04 19:33 50.14128 7.64682 10996 ft 353 kts 98°
2026-05-04 19:34 50.13910 7.68479 10986 ft 351 kts 98°
2026-05-04 19:34 50.13689 7.72260 10973 ft 351 kts 98°
2026-05-04 19:34 50.13467 7.76043 10747 ft 350 kts 98°
2026-05-04 19:34 50.13245 7.79807 10570 ft 345 kts 98°
2026-05-04 19:35 50.13029 7.83468 10475 ft 333 kts 98°
2026-05-04 19:35 50.12822 7.86977 10346 ft 318 kts 98°
2026-05-04 19:35 50.12623 7.90332 10216 ft 305 kts 99°
2026-05-04 19:35 50.12426 7.93574 9979 ft 299 kts 99°
2026-05-04 19:36 50.12228 7.96787 9770 ft 297 kts 99°
2026-05-04 19:36 50.12030 7.99983 9526 ft 295 kts 99°
2026-05-04 19:36 50.11836 8.03164 9289 ft 294 kts 99°
2026-05-04 19:36 50.11641 8.06326 9053 ft 294 kts 99°
2026-05-04 19:37 50.11446 8.09471 8966 ft 291 kts 99°
2026-05-04 19:37 50.11248 8.12624 8964 ft 293 kts 99°
2026-05-04 19:37 50.11050 8.15782 8965 ft 293 kts 99°
2026-05-04 19:37 50.10852 8.18937 8967 ft 293 kts 99°
2026-05-04 19:38 50.10651 8.22101 8961 ft 293 kts 99°
2026-05-04 19:38 50.10455 8.25212 8962 ft 293 kts 99°
2026-05-04 19:38 50.10255 8.28367 8961 ft 292 kts 98°
2026-05-04 19:38 50.10055 8.31509 8962 ft 292 kts 99°
2026-05-04 19:39 50.09855 8.34644 8961 ft 289 kts 98°
2026-05-04 19:39 50.09888 8.37711 8961 ft 276 kts 84°
2026-05-04 19:39 50.10376 8.40535 8964 ft 269 kts 71°
2026-05-04 19:39 50.11058 8.43204 8963 ft 263 kts 71°
2026-05-04 19:40 50.11705 8.45874 8968 ft 264 kts 72°
2026-05-04 19:40 50.12343 8.48566 8966 ft 265 kts 72°
2026-05-04 19:40 50.12978 8.51253 8965 ft 265 kts 72°
2026-05-04 19:40 50.13618 8.53949 8967 ft 265 kts 72°
2026-05-04 19:41 50.14258 8.56638 8965 ft 265 kts 72°
2026-05-04 19:41 50.14899 8.59329 8964 ft 265 kts 72°
2026-05-04 19:41 50.15543 8.62037 8757 ft 268 kts 72°
2026-05-04 19:41 50.16189 8.64754 8454 ft 267 kts 72°
2026-05-04 19:42 50.16833 8.67462 8152 ft 265 kts 72°
2026-05-04 19:42 50.17471 8.70152 7841 ft 264 kts 72°
2026-05-04 19:42 50.18106 8.72827 7532 ft 262 kts 72°
2026-05-04 19:42 50.18737 8.75491 7254 ft 261 kts 72°
2026-05-04 19:43 50.19365 8.78141 7010 ft 257 kts 72°
2026-05-04 19:43 50.19978 8.80737 6971 ft 253 kts 72°
2026-05-04 19:43 50.20585 8.83315 6971 ft 253 kts 72°
2026-05-04 19:43 50.21191 8.85892 6974 ft 253 kts 72°
2026-05-04 19:44 50.21796 8.88468 6876 ft 255 kts 72°
2026-05-04 19:44 50.22409 8.91081 6709 ft 255 kts 72°
2026-05-04 19:44 50.23013 8.93658 6541 ft 253 kts 72°
2026-05-04 19:44 50.23615 8.96232 6378 ft 252 kts 72°
2026-05-04 19:45 50.24209 8.98792 6224 ft 249 kts 75°
2026-05-04 19:45 50.24331 9.01436 6062 ft 243 kts 105°
2026-05-04 19:45 50.23596 9.03726 6017 ft 234 kts 136°
2026-05-04 19:45 50.22247 9.05038 6021 ft 230 kts 163°
2026-05-04 19:46 50.20674 9.05382 6017 ft 230 kts 189°
2026-05-04 19:46 50.19219 9.04410 6012 ft 231 kts 219°
2026-05-04 19:46 50.18073 9.02648 6010 ft 231 kts 224°
2026-05-04 19:46 50.16936 9.00879 6012 ft 231 kts 224°
2026-05-04 19:47 50.15799 8.99111 6006 ft 229 kts 224°
2026-05-04 19:47 50.14698 8.97397 5967 ft 218 kts 224°
2026-05-04 19:47 50.13637 8.95744 5673 ft 216 kts 224°
2026-05-04 19:47 50.12694 8.94045 5248 ft 197 kts 234°
2026-05-04 19:48 50.12052 8.92220 4871 ft 190 kts 244°
2026-05-04 19:48 50.11548 8.90318 4604 ft 190 kts 248°
2026-05-04 19:48 50.11085 8.88390 4336 ft 190 kts 249°
2026-05-04 19:48 50.10626 8.86466 4088 ft 189 kts 249°
2026-05-04 19:49 50.10175 8.84569 3829 ft 189 kts 249°
2026-05-04 19:49 50.09719 8.82651 3576 ft 189 kts 249°
2026-05-04 19:49 50.09258 8.80712 3327 ft 188 kts 250°
2026-05-04 19:49 50.08810 8.78831 3076 ft 187 kts 250°
2026-05-04 19:50 50.08359 8.76934 2829 ft 186 kts 250°
2026-05-04 19:50 50.07910 8.75045 2574 ft 186 kts 250°
2026-05-04 19:50 50.07471 8.73204 2329 ft 175 kts 250°
2026-05-04 19:50 50.07059 8.71475 2098 ft 168 kts 251°
2026-05-04 19:51 50.06662 8.69804 1877 ft 157 kts 251°
2026-05-04 19:51 50.06302 8.68294 1684 ft 144 kts 251°
2026-05-04 19:51 50.05960 8.66854 1480 ft 140 kts 251°
2026-05-04 19:51 50.05621 8.65436 1300 ft 139 kts 251°
2026-05-04 19:52 50.05286 8.64026 1109 ft 138 kts 251°
2026-05-04 19:52 50.04955 8.62637 937 ft 136 kts 251°
2026-05-04 19:52 50.04627 8.61261 753 ft 135 kts 252°
2026-05-04 19:52 50.04295 8.59894 562 ft 134 kts 252°
2026-05-04 19:53 50.03974 8.58539 387 ft 133 kts 251°
2026-05-04 19:53 50.03701 8.57376 364 ft 93 kts 249°
2026-05-04 19:53 50.03511 8.56585 363 ft 65 kts 249°
2026-05-04 19:53 50.03379 8.56025 358 ft 41 kts 250°
2026-05-04 19:54 50.03311 8.55635 351 ft 34 kts 270°
2026-05-04 19:54 50.03334 8.55308 355 ft 29 kts 279°
2026-05-04 19:54 50.03349 8.55179 356 ft 9 kts 285°
2026-05-04 19:54 50.03368 8.55146 356 ft 4 kts 342°
2026-05-04 19:55 50.03386 8.55146 356 ft 5 kts 12°
2026-05-04 19:55 50.03424 8.55200 356 ft 14 kts 58°
2026-05-04 19:55 50.03484 8.55440 355 ft 20 kts 69°
2026-05-04 19:55 50.03519 8.55584 356 ft 22 kts 69°
2026-05-04 19:56 50.03593 8.55895 363 ft 24 kts 69°
2026-05-04 19:56 50.03653 8.56140 362 ft 25 kts 69°
2026-05-04 19:56 50.03695 8.56313 364 ft 26 kts 69°
2026-05-04 19:56 50.03758 8.56583 364 ft 27 kts 71°
2026-05-04 19:57 50.03823 8.56860 367 ft 27 kts 69°
2026-05-04 19:57 50.03890 8.57139 367 ft 27 kts 69°
2026-05-04 19:57 50.03954 8.57408 374 ft 26 kts 69°
2026-05-04 19:57 50.04019 8.57675 374 ft 27 kts 69°
2026-05-04 19:58 50.04083 8.57947 377 ft 28 kts 70°
2026-05-04 19:58 50.04154 8.58227 378 ft 27 kts 66°
2026-05-04 19:58 50.04218 8.58504 377 ft 27 kts 69°
2026-05-04 19:58 50.04285 8.58778 379 ft 27 kts 70°
2026-05-04 19:59 50.04348 8.59047 382 ft 26 kts 70°
2026-05-04 19:59 50.04409 8.59299 381 ft 22 kts 69°
2026-05-04 19:59 50.04447 8.59452 380 ft 11 kts 60°
2026-05-04 19:59 50.04501 8.59486 379 ft 11 kts 350°
2026-05-04 20:00 50.04540 8.59473 379 ft 1 kts 351°
2026-05-04 20:01 50.04573 8.59467 378 ft 9 kts 355°
2026-05-04 20:01 50.04660 8.59455 377 ft 15 kts 351°
2026-05-04 20:02 50.04724 8.59430 377 ft 10 kts 342°
2026-05-04 20:02 50.04777 8.59398 377 ft 5 kts 339°
2026-05-04 20:02 50.04797 8.59387 377 ft 0 kts 339°
2026-05-04 20:05 50.04837 8.59365 378 ft 11 kts 348°
2026-05-04 20:06 50.04929 8.59370 375 ft 15 kts 349°
2026-05-04 20:06 50.05015 8.59327 373 ft 12 kts 340°
2026-05-04 20:06 50.05082 8.59245 372 ft 13 kts 283°
2026-05-04 20:06 50.05053 8.59098 368 ft 16 kts 248°
2026-05-04 20:07 50.05011 8.58922 368 ft 18 kts 249°
2026-05-04 20:07 50.04977 8.58781 368 ft 12 kts 250°
2026-05-04 20:07 50.04966 8.58734 369 ft 1 kts 250°
2026-05-04 20:07 50.04963 8.58725 370 ft 1 kts 250°
2026-05-04 20:08 50.04960 8.58704 370 ft 2 kts 281°
2026-05-04 20:08 50.04972 8.58673 372 ft 3 kts 339°
2026-05-04 20:08 50.05017 8.58655 370 ft 8 kts 343°
2026-05-04 20:08 50.05036 8.58645 366 ft 2 kts 340°
2026-05-04 20:09 50.05040 8.58643 366 ft 0 kts 340°